This demonstration page uses our WeatherBlox Daily Observations layout. Learn more.

Left ArrowRight Arrow

34.16533, -84.80231

Hourly Observations for September 27, 2022

Temp ( °F °C ) Dew Point ( °F °C ) Humidity (%) Winds ( mph kmh ) Pressure ( in mb ) Visibility ( mi km ) Precip ( " mm )
12:15 am 00:15 Clear 57 14 52 11 82 82 Calm 30.03 1017 10 16 0.00 0.00
12:35 am 00:35 Clear 57 14 52 11 82 82 Calm 30.03 1017 10 16 0.00 0.00
12:55 am 00:55 Clear 55 13 52 11 88 88 Calm 30.03 1017 10 16 0.00 0.00
1:15 am 01:15 Clear 55 13 52 11 88 88 Calm 30.03 1017 10 16 0.00 0.00
1:35 am 01:35 Clear 55 13 52 11 88 88 Calm 30.03 1017 10 16 0.00 0.00
1:55 am 01:55 Clear 54 12 50 10 88 88 Calm 30.03 1017 10 16 0.00 0.00
2:15 am 02:15 Clear 54 12 52 11 94 94 Calm 30.02 1017 10 16 0.00 0.00
2:35 am 02:35 Clear 54 12 50 10 88 88 Calm 30.03 1017 10 16 0.00 0.00
2:55 am 02:55 Clear 52 11 50 10 94 94 Calm 30.04 1017 10 16 0.00 0.00
3:15 am 03:15 Clear 54 12 50 10 88 88 Calm 30.03 1017 10 16 0.00 0.00
3:35 am 03:35 Clear 52 11 48 9 87 87 Calm 30.04 1017 10 16 0.00 0.00
3:55 am 03:55 Clear 52 11 48 9 87 87 Calm 30.04 1017 10 16 0.00 0.00
4:15 am 04:15 Clear 52 11 48 9 87 87 Calm 30.04 1017 10 16 0.00 0.00
4:35 am 04:35 Clear 52 11 48 9 87 87 Calm 30.04 1017 10 16 0.00 0.00
4:55 am 04:55 Clear 50 10 48 9 93 93 Calm 30.04 1017 10 16 0.00 0.00
5:15 am 05:15 Clear 50 10 46 8 87 87 Calm 30.04 1017 10 16 0.00 0.00
5:35 am 05:35 Clear 50 10 46 8 87 87 Calm 30.05 1018 10 16 0.00 0.00
5:55 am 05:55 Clear 48 9 46 8 93 93 Calm 30.05 1018 10 16 0.00 0.00
6:15 am 06:15 Clear 48 9 46 8 93 93 Calm 30.05 1018 10 16 0.00 0.00
6:35 am 06:35 Clear 48 9 46 8 93 93 Calm 30.06 1018 10 16 0.00 0.00
6:55 am 06:55 Clear 48 9 46 8 93 93 Calm 30.06 1018 10 16 0.00 0.00
7:15 am 07:15 Clear 46 8 45 7 93 93 Calm 30.07 1018 10 16 0.00 0.00
7:35 am 07:35 Sunny 46 8 46 8 100 100 Calm 30.07 1018 9 14 0.00 0.00
7:55 am 07:55 Sunny 48 9 46 8 93 93 Calm 30.07 1018 10 16 0.00 0.00
8:15 am 08:15 Sunny 48 9 45 7 87 87 Calm 30.08 1019 10 16 0.00 0.00
8:35 am 08:35 Sunny 50 10 46 8 87 87 Calm 30.08 1019 10 16 0.00 0.00
8:55 am 08:55 Sunny 54 12 45 7 71 71 Calm 30.08 1019 10 16 0.00 0.00
9:15 am 09:15 Sunny 54 12 45 7 71 71 Calm 30.08 1019 10 16 0.00 0.00
9:35 am 09:35 Sunny 55 13 46 8 72 72 Calm 30.09 1019 10 16 0.00 0.00
9:55 am 09:55 Sunny 59 15 46 8 63 63 Calm 30.10 1019 10 16 0.00 0.00
10:15 am 10:15 Sunny 61 16 43 6 51 51 VRB 5 7 30.10 1019 10 16 0.00 0.00
10:35 am 10:35 Sunny 63 17 41 5 45 45 VRB 5 7 30.11 1020 10 16 0.00 0.00
10:55 am 10:55 Sunny 64 18 39 4 39 39 VRB 6 9 30.11 1020 10 16 0.00 0.00
11:15 am 11:15 Sunny 66 19 37 3 34 34 VRB 6 9 30.11 1020 10 16 0.00 0.00
11:35 am 11:35 Sunny 66 19 36 2 32 32 NNW 9 15 30.11 1020 8 13 0.00 0.00
11:55 am 11:55 Sunny 68 20 36 2 30 30 NW 8 13 30.10 1019 10 16 0.00 0.00
12:15 pm 12:15 Sunny 68 20 36 2 30 30 SSE 8 13 30.10 1019 10 16 0.00 0.00
12:35 pm 12:35 Sunny 68 20 36 2 30 30 NNW 9 15 30.10 1019 10 16 0.00 0.00
12:55 pm 12:55 Sunny 68 20 36 2 30 30 N 8 13 30.10 1019 10 16 0.00 0.00
1:15 pm 13:15 Sunny 70 21 36 2 28 28 VRB 7 11 30.09 1019 10 16 0.00 0.00
1:35 pm 13:35 Sunny 70 21 37 3 30 30 N 8 13 30.09 1019 10 16 0.00 0.00
1:55 pm 13:55 Sunny 70 21 37 3 30 30 NNW 12 19 30.08 1019 9 14 0.00 0.00
2:15 pm 14:15 Sunny 70 21 37 3 30 30 VRB 9 15 30.08 1019 10 16 0.00 0.00
2:35 pm 14:35 Sunny 72 22 36 2 27 27 VRB 9 15 30.07 1018 10 16 0.00 0.00
2:55 pm 14:55 Sunny 72 22 37 3 29 29 VRB 8 13 30.06 1018 10 16 0.00 0.00
3:15 pm 15:15 Sunny 73 23 37 3 27 27 VRB 8 13 30.05 1017 10 16 0.00 0.00
3:35 pm 15:35 Sunny 72 22 36 2 27 27 Calm 30.05 1018 10 16 0.00 0.00
3:55 pm 15:55 Sunny 72 22 37 3 29 29 NNE 10 17 30.05 1018 10 16 0.00 0.00
4:15 pm 16:15 Sunny 73 23 37 3 27 27 NNE 8 13 30.05 1018 10 16 0.00 0.00
4:35 pm 16:35 Sunny 73 23 37 3 27 27 NNW 8 13 30.05 1018 10 16 0.00 0.00
4:55 pm 16:55 Sunny 73 23 37 3 27 27 N 12 19 30.05 1017 10 16 0.00 0.00
5:15 pm 17:15 Sunny 73 23 36 2 25 25 VRB 6 9 30.05 1017 10 16 0.00 0.00
5:35 pm 17:35 Sunny 73 23 36 2 25 25 VRB 7 11 30.05 1018 10 16 0.00 0.00
5:55 pm 17:55 Sunny 73 23 37 3 27 27 Calm 30.05 1018 10 16 0.00 0.00
6:15 pm 18:15 Sunny 72 22 37 3 29 29 Calm 30.07 1018 10 16 0.00 0.00
6:35 pm 18:35 Sunny 72 22 37 3 29 29 Calm 30.07 1018 10 16 0.00 0.00
6:55 pm 18:55 Sunny 70 21 37 3 30 30 VRB 7 11 30.07 1018 10 16 0.00 0.00
7:15 pm 19:15 Sunny 68 20 37 3 32 32 VRB 3 6 30.08 1019 10 16 0.00 0.00
7:35 pm 19:35 Clear 66 19 37 3 34 34 VRB 5 7 30.09 1019 10 16 0.00 0.00
7:55 pm 19:55 Clear 66 19 37 3 34 34 Calm 30.09 1019 10 16 0.00 0.00
8:15 pm 20:15 Clear 63 17 41 5 45 45 Calm 30.11 1020 10 16 0.00 0.00
8:35 pm 20:35 Clear 64 18 39 4 39 39 Calm 30.12 1020 10 16 0.00 0.00
8:55 pm 20:55 Clear 63 17 39 4 42 42 Calm 30.13 1020 10 16 0.00 0.00
9:15 pm 21:15 Clear 63 17 39 4 42 42 Calm 30.13 1020 10 16 0.00 0.00
9:35 pm 21:35 Clear 59 15 43 6 55 55 Calm 30.15 1021 10 16 0.00 0.00
9:55 pm 21:55 Clear 61 16 41 5 48 48 Calm 30.14 1021 10 16 0.00 0.00
10:15 pm 22:15 Clear 59 15 41 5 51 51 Calm 30.15 1021 10 16 0.00 0.00
10:35 pm 22:35 Clear 57 14 43 6 58 58 Calm 30.15 1021 10 16 0.00 0.00
10:55 pm 22:55 Clear 57 14 43 6 58 58 Calm 30.16 1021 10 16 0.00 0.00
11:15 pm 23:15 Clear 55 13 43 6 62 62 Calm 30.16 1021 10 16 0.00 0.00
11:35 pm 23:35 Clear 55 13 43 6 62 62 Calm 30.17 1022 10 16 0.00 0.00
11:55 pm 23:55 Clear 55 13 43 6 62 62 Calm 30.17 1022 10 16 0.00 0.00

Powered by AerisWeather